Tracking 29892 objects as of 21-Nov-2024
HD Live streaming from Space Station
objects crossing your sky now

STARLINK-3699

Track STARLINK-3699 now!
10-day predictions
STARLINK-3699 is classified as:


NORAD ID: 51966
Int'l Code: 2022-025L
Perigee: 553.4 km
Apogee: 555.4 km
Inclination: 53.1 °
Period: 95.6 minutes
Semi major axis: 6925 km
RCS: Unknown
Launch date: March 9, 2022
Source: United States (US)
Launch site: AIR FORCE EASTERN TEST RANGE (AFETR)
Your satellite tracking list
Your tracking list is empty




NASA's NSSDC Master Catalog

Two Line Element Set (TLE):
1 51966U 22025L   24325.52025491  .00002415  00000-0  18099-3 0  9994
2 51966  53.0566 359.4543 0001440  95.8672 264.2481 15.06392097150547
Source of the keplerian elements: AFSPC